Find Starlink 35696

NORAD ID: 66489 Int'l Des: 2025-263 Owner: SPXS Country: US Constellation: starlink operational
LEOCIRCULAR

当前视图

正在加载3D地球...

About Starlink 35696

Starlink 35696 (NORAD 66489) is a starlink constellation satellite (v2 mini) launched Nov 15, 2025 by SPXS of US. It operates in LEO, CIRCULAR orbit with a mass of 575.00 kg.

即将过境

Passes for default location (London). Set your location on the main map for personalized predictions.

高度历史

Loading altitude history...

两行轨道根数

1 66489U 25263E 26237.93984083 .00008932 00000-0 33368-3 0 9993
2 66489 42.9993 114.8511 0001701 350.3457 9.7362 15.27583458 44786
Epoch: Aug 25, 2026 • Age: 13 hours

当前状态

高度 481.3 km
远地点 / 近地点 N/A
速度 7.63 km/s
星下点 18.94°N, 9.88°W
发射日期 Nov 15, 2025
运行时间 0.7 years
类型 internet

技术详情

分类 Payload
质量 575.00 kg
干质量 530.00 kg
总质量 575.00 kg
长度 0.30 m
直径 4.10 m
跨度 29.00 m
形状 Box + pan
制造商 SPXS
平台类型 Starlink V2MO
阶段状态 In Orbit
所有者/国家 SPXS/US

Most Searched